Weather History for KIML - January, 2012

Change the Weather History Date:

Monday, January 9, 2012

  Actual Average Record
Temperature  
Mean Temperature 39 °F 28 °F  
Max Temperature 55 °F 41 °F 68 °F (2002)
Min Temperature 22 °F 15 °F -16 °F (1937)
Degree Days  
Heating Degree Days 26 37  
Month to date heating degree days 253 333  
Cooling Degree Days 0 0  
Month to date cooling degree days 0 0  
Year to date cooling degree days 0 0  
Moisture  
Dew Point 21 °F    
Average Humidity 52    
Maximum Humidity 71    
Minimum Humidity 32    
Precipitation  
Precipitation 0.00 in 0.00 in 0.66 in (1993)
Sea Level Pressure  
Sea Level Pressure 30.21 in    
Wind  
Wind Speed 10 mph (WNW)    
Max Wind Speed 18 mph    
Max Gust Speed 22 mph    
Visibility 10 miles    
Events      
T = Trace of Precipitation, MM = Missing Value Source: NWS Daily Summary

Daily Weather History Graph

Daily Weather History Graph

Search for Another Location

Airport or City:

Trip Planner

Search our weather history database for the weather conditions in past years. The results will help you decide how hot, cold, wet, or windy it might be!

Date:

Astronomy

Jan. 09, 2012 Rise Set
Actual Time 7:09 AM MST 4:37 PM MST
Civil Twilight 6:39 AM MST 5:07 PM MST
Nautical Twilight 6:05 AM MST 5:41 PM MST
Astronomical Twilight 5:32 AM MST 6:14 PM MST
Moon 5:26 PM MST (1/9) 7:11 AM MST (1/9)
Length of Visible Light 10h 28m
Length of Day
9h 27m
Full, 100% of the Moon is Illuminated
Jan 9
Full
Jan 16
Last Quarter
Jan 23
New
Jan 30
First Quarter
Feb 7
Full

Hourly Weather History & Observations

Time (MST) Temp. Windchill Dew Point Humidity Pressure Visibility Wind Dir Wind Speed Gust Speed Precip Events Conditions
12:53 AM 24.1 °F 15.2 °F 16.0 °F 71% 30.27 in 10.0 mi West 8.1 mph - N/A   Clear
1:53 AM 24.1 °F 14.4 °F 15.1 °F 69% 30.27 in 10.0 mi West 9.2 mph - N/A   Clear
2:53 AM 23.0 °F 13.1 °F 14.0 °F 68% 30.27 in 10.0 mi WNW 9.2 mph - N/A   Clear
3:53 AM 21.9 °F 12.5 °F 14.0 °F 72% 30.26 in 10.0 mi West 8.1 mph - N/A   Clear
4:53 AM 23.0 °F 11.1 °F 14.0 °F 68% 30.28 in 10.0 mi WNW 12.7 mph - N/A   Clear
5:53 AM 25.0 °F 14.2 °F 16.0 °F 69% 30.28 in 10.0 mi WNW 11.5 mph - N/A   Clear
6:53 AM 26.1 °F 15.0 °F 16.0 °F 66% 30.29 in 10.0 mi WNW 12.7 mph - N/A   Clear
7:53 AM 28.0 °F 18.1 °F 18.0 °F 66% 30.30 in 10.0 mi WNW 11.5 mph - N/A   Clear
8:53 AM 33.8 °F 24.8 °F 19.4 °F 56% 30.20 in 10.0 mi NW 12.7 mph - N/A   Clear
9:53 AM 43.0 °F 36.0 °F 21.9 °F 43% 30.27 in 10.0 mi NW 13.8 mph 21.9 mph N/A   Clear
10:53 AM 46.9 °F - 23.0 °F 39% 30.24 in 10.0 mi NNW 15.0 mph - N/A   Clear
11:53 AM 50.0 °F - 24.1 °F 36% 30.20 in 10.0 mi North 16.1 mph 21.9 mph N/A   Clear
12:53 PM 53.1 °F - 25.0 °F 34% 30.18 in 10.0 mi NNW 15.0 mph - N/A   Clear
1:53 PM 54.0 °F - 27.0 °F 35% 30.16 in 10.0 mi North 13.8 mph - N/A   Clear
2:53 PM 54.0 °F - 27.0 °F 35% 30.15 in 10.0 mi North 11.5 mph - N/A   Clear
3:53 PM 51.1 °F - 27.0 °F 39% 30.17 in 10.0 mi NNW 5.8 mph - N/A   Clear
4:53 PM 46.4 °F 45.2 °F 26.6 °F 46% 30.12 in 10.0 mi West 3.5 mph - N/A   Clear
5:53 PM 36.0 °F 33.3 °F 23.0 °F 59% 30.21 in 10.0 mi West 3.5 mph - N/A   Clear
6:53 PM 36.0 °F 31.1 °F 24.1 °F 62% 30.22 in 10.0 mi West 5.8 mph - N/A   Clear
7:53 PM 33.1 °F 28.7 °F 23.0 °F 66% 30.21 in 10.0 mi West 4.6 mph - N/A   Clear
8:53 PM 33.1 °F 26.1 °F 23.0 °F 66% 30.19 in 10.0 mi West 8.1 mph - N/A   Clear
9:53 PM 30.0 °F 25.2 °F 21.0 °F 69% 30.17 in 10.0 mi West 4.6 mph - N/A   Clear
10:53 PM 30.9 °F 22.8 °F 21.9 °F 69% 30.14 in 10.0 mi WNW 9.2 mph - N/A   Clear
11:53 PM 32.0 °F 21.6 °F 21.9 °F 66% 30.11 in 10.0 mi WNW 15.0 mph - N/A   Clear